Starlink 5284

operational
NORAD ID: 55297 Int'l Des: 2023-010 Owner: SPXS Country: US Constellation: starlink
LEOCIRCULAR

Starlink 5284について

説明を読み込み中...

リアルタイム位置

3D地球を読み込み中...

次回通過

高度履歴

Altitude vs Time

uPlot chart will show altitude changes over time

軌道要素

1 55297U 23010AE 26062.16628721 -.00003670 00000-0 -30014-3 0 9992
2 55297 70.0013 40.8407 0002786 267.0192 93.0648 14.98306157172299
Epoch: Mar 3, 2026 • Age: 30 hours

現在のステータス

高度 585.6 km
速度 7.57 km/s
衛星直下点 70.10°N, 124.76°W
打ち上げ日 Jan 19, 2023
運用期間 3.1 years
タイプ internet

技術仕様

分類 Payload
質量 305.00 kg
乾燥質量 290.00 kg
総質量 305.00 kg
長さ 0.20 m
直径 2.80 m
スパン 9.00 m
形状 Box + pan
製造者 SPXS
バスタイプ Starlink
フェーズステータス In Orbit
所有者/国 SPXS/US

大規模コンステレーション

Loading constellations...